Location: Newark
(22.3060°N, 114.2134°E)
Time: 22:45:19
(UTC+00:00)

Vanguard 1 Rocket - Pass Details

Date: 04 August 2021
Orbit: 650 x 4226 km, 34.3° (Epoch: 15 September)

Event Time Altitude Azimuth Distance (km) Brightness Sun altitude
Rises 21:15:04 0° 208° (SSW) 7,583 11.6 -9.8°
Reaches altitude 10° 21:20:32 10° 201° (SSW) 6,911 11.5 -8.6°
Maximum altitude 21:42:56 40° 139° (SE) 5,268 11.5 -3.8°
Drops below altitude 10° 22:03:15 10° 78° (ENE) 6,450 14.0 0.6°
Sets 22:07:56 0° 71° (ENE) 7,077 16.1 1.6°
